Weather History for Arlington, WA

Change the Weather History Date:

Friday, May 31, 2013

  Actual Average Record
Temperature  
Mean Temperature 55 °F -  
Max Temperature 64 °F 67 °F 78 °F (2001)
Min Temperature 46 °F 46 °F 37 °F (2008)
Degree Days  
Heating Degree Days 10    
Growing Degree Days 5 (Base 50)    
Moisture  
Dew Point 46 °F    
Average Humidity 72    
Maximum Humidity 94    
Minimum Humidity 49    
Precipitation  
Precipitation 0.00 in - - ()
Sea Level Pressure  
Sea Level Pressure 30.32 in    
Wind  
Wind Speed 2 mph (NW)    
Max Wind Speed 10 mph    
Max Gust Speed -    
Visibility 10 miles    
Events      
Averages and records for this station are not official NWS values.
T = Trace of Precipitation, MM = Missing Value Source: NWS Daily Summary

Daily Weather History Graph

Daily Weather History Graph

Search for Another Location

Airport:

Trip Planner

Search our weather history database for the weather conditions in past years. The results will help you decide how hot, cold, wet, or windy it might be!

Date:

Astronomy

May. 31, 2013 Rise Set
Actual Time 5:13 AM PDT 9:00 PM PDT
Civil Twilight 4:33 AM PDT 9:40 PM PDT
Nautical Twilight 3:38 AM PDT 10:34 PM PDT
Astronomical Twilight 2:19 AM PDT 11:55 PM PDT
Moon 1:14 AM PDT (5/31) 12:59 PM PDT (5/31)
Length of Visible Light 17h 07m
Length of Day
15h 47m
Waning Gibbous, 50% of the Moon is Illuminated
May 31
Waning Gibbous
May 31
Last Quarter
Jun 8
New
Jun 16
First Quarter
Jun 23
Full

Hourly Weather History & Observations

Time (PDT) Temp. Dew Point Humidity Pressure Visibility Wind Dir Wind Speed Gust Speed Precip Events Conditions
12:15 AM 51.8 °F 48.2 °F 88% 30.27 in 10.0 mi Calm Calm - N/A   Unknown
12:35 AM 51.8 °F 48.2 °F 88% 30.27 in 10.0 mi Calm Calm - N/A   Unknown
12:55 AM 51.8 °F 48.2 °F 88% 30.28 in 10.0 mi Calm Calm - N/A   Unknown
1:15 AM 51.8 °F 48.2 °F 88% 30.28 in 10.0 mi Calm Calm - N/A   Unknown
1:35 AM 51.8 °F 48.2 °F 88% 30.28 in 10.0 mi Calm Calm - N/A   Unknown
1:55 AM 51.8 °F 48.2 °F 88% 30.28 in 9.0 mi SSW 3.5 mph - N/A   Unknown
2:15 AM 51.8 °F 48.2 °F 88% 30.29 in 9.0 mi Calm Calm - N/A   Unknown
2:35 AM 51.8 °F 48.2 °F 88% 30.29 in 10.0 mi Calm Calm - N/A   Unknown
2:55 AM 51.8 °F 48.2 °F 88% 30.30 in 10.0 mi Calm Calm - N/A   Unknown
3:15 AM 51.8 °F 48.2 °F 88% 30.30 in 10.0 mi Calm Calm - N/A   Unknown
3:35 AM 51.8 °F 48.2 °F 88% 30.30 in 10.0 mi Calm Calm - N/A   Unknown
3:55 AM 50.0 °F 48.2 °F 94% 30.30 in 10.0 mi Calm Calm - N/A   Unknown
4:15 AM 51.8 °F 48.2 °F 88% 30.30 in 10.0 mi Calm Calm - N/A   Unknown
4:35 AM 50.0 °F 48.2 °F 94% 30.30 in 10.0 mi Calm Calm - N/A   Unknown
4:55 AM 50.0 °F 46.4 °F 87% 30.31 in 10.0 mi Calm Calm - N/A   Unknown
5:15 AM 51.8 °F 48.2 °F 88% 30.32 in 10.0 mi Calm Calm - N/A   Unknown
5:35 AM 51.8 °F 46.4 °F 82% 30.32 in 10.0 mi Calm Calm - N/A   Unknown
5:55 AM 50.0 °F 46.4 °F 87% 30.33 in 10.0 mi Calm Calm - N/A   Unknown
6:15 AM 50.0 °F 46.4 °F 87% 30.33 in 4.0 mi Calm Calm - N/A   Unknown
6:35 AM 50.0 °F 48.2 °F 94% 30.33 in 6.0 mi Calm Calm - N/A   Unknown
6:55 AM 50.0 °F 48.2 °F 94% 30.34 in 10.0 mi Calm Calm - N/A   Unknown
7:15 AM 51.8 °F 48.2 °F 88% 30.35 in 10.0 mi Calm Calm - N/A   Unknown
7:35 AM 51.8 °F 48.2 °F 88% 30.35 in 10.0 mi Calm Calm - N/A   Unknown
7:55 AM 51.8 °F 48.2 °F 88% 30.35 in 10.0 mi Calm Calm - N/A   Unknown
8:15 AM 51.8 °F 48.2 °F 88% 30.36 in 10.0 mi Calm Calm - N/A   Unknown
8:35 AM 53.6 °F 48.2 °F 82% 30.36 in 10.0 mi Calm Calm - N/A   Unknown
8:55 AM 53.6 °F 48.2 °F 82% 30.36 in 10.0 mi Calm Calm - N/A   Unknown
9:15 AM 53.6 °F 46.4 °F 77% 30.36 in 10.0 mi Calm Calm - N/A   Unknown
9:35 AM 53.6 °F 48.2 °F 82% 30.36 in 10.0 mi Calm Calm - N/A   Unknown
9:55 AM 55.4 °F 48.2 °F 77% 30.37 in 10.0 mi Calm Calm - N/A   Unknown
10:15 AM 55.4 °F 46.4 °F 72% 30.37 in 10.0 mi Calm Calm - N/A   Unknown
10:35 AM 55.4 °F 48.2 °F 77% 30.37 in 10.0 mi Calm Calm - N/A   Unknown
10:55 AM 57.2 °F 48.2 °F 72% 30.36 in 10.0 mi Calm Calm - N/A   Unknown
11:15 AM 57.2 °F 46.4 °F 67% 30.36 in 10.0 mi Calm Calm - N/A   Unknown
11:35 AM 57.2 °F 46.4 °F 67% 30.36 in 10.0 mi Calm Calm - N/A   Unknown
11:55 AM 59.0 °F 46.4 °F 63% 30.36 in 10.0 mi Calm Calm - N/A   Unknown
12:15 PM 59.0 °F 44.6 °F 59% 30.36 in 10.0 mi SW 4.6 mph - N/A   Unknown
12:35 PM 60.8 °F 44.6 °F 55% 30.35 in 10.0 mi Calm Calm - N/A   Unknown
12:55 PM 60.8 °F 48.2 °F 63% 30.35 in 10.0 mi NW 3.5 mph - N/A   Unknown
1:15 PM 60.8 °F 46.4 °F 59% 30.35 in 10.0 mi Calm Calm - N/A   Unknown
1:35 PM 60.8 °F 46.4 °F 59% 30.35 in 10.0 mi WNW 4.6 mph - N/A   Unknown
1:55 PM 60.8 °F 46.4 °F 59% 30.34 in 10.0 mi North 4.6 mph - N/A   Unknown
2:15 PM 60.8 °F 46.4 °F 59% 30.34 in 10.0 mi Calm Calm - N/A   Unknown
2:35 PM 60.8 °F 46.4 °F 59% 30.34 in 10.0 mi NW 5.8 mph - N/A   Unknown
2:55 PM 60.8 °F 46.4 °F 59% 30.34 in 10.0 mi NNW 5.8 mph - N/A   Unknown
3:15 PM 62.6 °F 46.4 °F 55% 30.34 in 10.0 mi Calm Calm - N/A   Unknown
3:35 PM 62.6 °F 46.4 °F 55% 30.33 in 10.0 mi WNW 5.8 mph - N/A   Unknown
3:55 PM 64.4 °F 46.4 °F 52% 30.33 in 10.0 mi NW 8.1 mph - N/A   Unknown
4:15 PM 62.6 °F 44.6 °F 52% 30.33 in 10.0 mi North 8.1 mph - N/A   Unknown
4:35 PM 64.4 °F 46.4 °F 52% 30.33 in 10.0 mi NNW 8.1 mph - N/A   Unknown
4:55 PM 64.4 °F 46.4 °F 52% 30.32 in 10.0 mi NNW 9.2 mph - N/A   Unknown
5:15 PM 60.8 °F 44.6 °F 55% 30.32 in 10.0 mi NW 6.9 mph - N/A   Unknown
5:35 PM 64.4 °F 44.6 °F 49% 30.31 in 10.0 mi NW 8.1 mph - N/A   Unknown
5:55 PM 64.4 °F 44.6 °F 49% 30.31 in 10.0 mi NNW 6.9 mph - N/A   Unknown
6:15 PM 64.4 °F 44.6 °F 49% 30.30 in 10.0 mi NW 8.1 mph - N/A   Unknown
6:35 PM 62.6 °F 44.6 °F 52% 30.30 in 10.0 mi NNW 8.1 mph - N/A   Unknown
6:55 PM 62.6 °F 44.6 °F 52% 30.30 in 10.0 mi WNW 9.2 mph - N/A   Unknown
7:15 PM 62.6 °F 44.6 °F 52% 30.29 in 10.0 mi NW 9.2 mph - N/A   Unknown
7:35 PM 60.8 °F 44.6 °F 55% 30.29 in 10.0 mi NW 9.2 mph - N/A   Unknown
7:55 PM 60.8 °F 44.6 °F 55% 30.30 in 10.0 mi NW 9.2 mph - N/A   Unknown
8:15 PM 57.2 °F 44.6 °F 63% 30.30 in 10.0 mi NW 10.4 mph - N/A   Unknown
8:35 PM 55.4 °F 44.6 °F 67% 30.29 in 10.0 mi NW 8.1 mph - N/A   Unknown
8:55 PM 55.4 °F 42.8 °F 63% 30.29 in 10.0 mi NW 6.9 mph - N/A   Unknown
9:15 PM 53.6 °F 42.8 °F 67% 30.29 in 10.0 mi NW 8.1 mph - N/A   Unknown
9:35 PM 51.8 °F 42.8 °F 71% 30.29 in 10.0 mi Calm Calm - N/A   Unknown
9:55 PM 53.6 °F 42.8 °F 67% 30.29 in 10.0 mi Calm Calm - N/A   Unknown
10:15 PM 51.8 °F 42.8 °F 71% 30.30 in 10.0 mi Calm Calm - N/A   Unknown
10:35 PM 51.8 °F 42.8 °F 71% 30.29 in 10.0 mi Calm Calm - N/A   Unknown
10:55 PM 50.0 °F 42.8 °F 76% 30.28 in 10.0 mi North 4.6 mph - N/A   Unknown
11:15 PM 46.4 °F 41.0 °F 81% 30.28 in 10.0 mi Calm Calm - N/A   Unknown
11:35 PM 48.2 °F 42.8 °F 82% 30.28 in 10.0 mi Calm Calm - N/A   Unknown
11:55 PM 46.4 °F 42.8 °F 87% 30.28 in 10.0 mi Calm Calm - N/A   Unknown